| time (UTC) | temp F | wind direction | speed MPH | gust MPH | rain 1hr in | rain 24hr in | rain mn in | humidity % | barometer mb |
| 20260504192150 | 79 | 221 | 6.0 | 11.0 | 0.00 | 0.00 | 0.00 | 72 | 1011.9 |
| 20260504191649 | 78 | 226 | 4.0 | 11.0 | 0.00 | 0.00 | 0.00 | 72 | 1011.8 |
| 20260504191144 | 79 | 206 | 6.0 | 12.0 | 0.00 | 0.00 | 0.00 | 72 | 1011.9 |
| 20260504190640 | 80 | 228 | 7.0 | 11.0 | 0.00 | 0.00 | 0.00 | 71 | 1012.1 |
| 20260504190137 | 79 | 169 | 7.0 | 9.0 | 0.00 | 0.00 | 0.00 | 71 | 1012.1 |
| 20260504185633 | 78 | 206 | 11.0 | 13.0 | 0.00 | 0.00 | 0.00 | 72 | 1012.1 |
| 20260504185130 | 78 | 183 | 5.0 | 15.0 | 0.00 | 0.00 | 0.00 | 71 | 1012.4 |
| 20260504184626 | 78 | 208 | 5.0 | 8.0 | 0.00 | 0.00 | 0.00 | 70 | 1012.1 |
| 20260504184121 | 78 | 232 | 4.0 | 11.0 | 0.00 | 0.00 | 0.00 | 74 | 1012.5 |
| 20260504183619 | 78 | 235 | 3.0 | 9.0 | 0.00 | 0.00 | 0.00 | 73 | 1012.3 |
| 20260504183116 | 77 | 186 | 3.0 | 13.0 | 0.00 | 0.00 | 0.00 | 73 | 1012.7 |
| 20260504182614 | 77 | 222 | 10.0 | 13.0 | 0.00 | 0.00 | 0.00 | 73 | 1012.3 |
| 20260504182111 | 77 | 212 | 9.0 | 13.0 | 0.00 | 0.00 | 0.00 | 71 | 1013.0 |
| 20260504181608 | 78 | 177 | 5.0 | 12.0 | 0.00 | 0.00 | 0.00 | 71 | 1012.7 |
| 20260504181106 | 77 | 226 | 7.0 | 13.0 | 0.00 | 0.00 | 0.00 | 73 | 1013.0 |
| 20260504180605 | 77 | 206 | 13.0 | 15.0 | 0.00 | 0.00 | 0.00 | 71 | 1013.1 |
| 20260504180103 | 77 | 222 | 3.0 | 8.0 | 0.00 | 0.00 | 0.00 | 71 | 1013.0 |
| 20260504175600 | 79 | 212 | 2.0 | 7.0 | 0.00 | 0.00 | 0.00 | 71 | 1013.5 |
| 20260504175057 | 77 | 229 | 5.0 | 12.0 | 0.00 | 0.00 | 0.00 | 71 | 1013.1 |
| 20260504174555 | 77 | 191 | 3.0 | 9.0 | 0.00 | 0.00 | 0.00 | 70 | 1013.4 |
| 20260504174051 | 78 | 205 | 8.0 | 10.0 | 0.00 | 0.00 | 0.00 | 71 | 1013.1 |
| 20260504173548 | 77 | 217 | 10.0 | 14.0 | 0.00 | 0.00 | 0.00 | 70 | 1013.2 |
| 20260504173046 | 78 | 194 | 3.0 | 10.0 | 0.00 | 0.00 | 0.00 | 71 | 1013.5 |
| 20260504172541 | 78 | 223 | 5.0 | 13.0 | 0.00 | 0.00 | 0.00 | 69 | 1013.5 |
| 20260504172038 | 77 | 227 | 16.0 | 21.0 | 0.00 | 0.00 | 0.00 | 71 | 1013.4 |
| 20260504171535 | 78 | 192 | 7.0 | 13.0 | 0.00 | 0.00 | 0.00 | 70 | 1013.4 |
| 20260504171032 | 77 | 197 | 5.0 | 11.0 | 0.00 | 0.00 | 0.00 | 70 | 1013.4 |
| 20260504170528 | 78 | 209 | 5.0 | 7.0 | 0.00 | 0.00 | 0.00 | 70 | 1013.7 |
| 20260504150912 | 72 | 207 | 8.0 | 14.0 | 0.00 | 0.00 | 0.00 | 77 | 1014.8 |
| 20260504150409 | 73 | 143 | 8.0 | 12.0 | 0.00 | 0.00 | 0.00 | 78 | 1014.6 |
| 20260504140835 | 69 | 201 | 4.0 | 10.0 | 0.00 | 0.00 | 0.00 | 78 | 1014.9 |
| 20260504140331 | 69 | 125 | 5.0 | 13.0 | 0.00 | 0.00 | 0.00 | 79 | 1014.8 |
| 20260504130800 | 65 | 243 | 2.0 | 4.0 | 0.00 | 0.00 | 0.00 | 83 | 1014.7 |
| 20260504130256 | 64 | 195 | 1.0 | 3.0 | 0.00 | 0.00 | 0.00 | 85 | 1015.0 |
| 20260504120214 | 54 | 81 | 0.0 | 0.0 | 0.00 | 0.00 | 0.00 | 99 | 1014.4 |
| 20260504110641 | 54 | 15 | 0.0 | 1.0 | 0.00 | 0.00 | 0.00 | 99 | 1014.3 |
| 20260504110137 | 54 | 90 | 0.0 | 1.0 | 0.00 | 0.00 | 0.00 | 99 | 1014.2 |
| 20260504100557 | 55 | 0 | 0.0 | 0.0 | 0.00 | 0.00 | 0.00 | 97 | 1014.4 |
| 20260504081951 | 60 | 201 | 0.0 | 2.0 | 0.00 | 0.00 | 0.00 | 88 | 1015.2 |
| 20260504081449 | 60 | 126 | 0.0 | 0.0 | 0.00 | 0.00 | 0.00 | 88 | 1015.3 |
| 20260504080944 | 60 | 262 | 0.0 | 1.0 | 0.00 | 0.00 | 0.00 | 88 | 1015.1 |
| 20260504080441 | 60 | 255 | 0.0 | 2.0 | 0.00 | 0.00 | 0.00 | 88 | 1015.1 |
| 20260504070409 | 62 | 142 | 0.0 | 3.0 | 0.00 | 0.00 | 0.00 | 84 | 1016.2 |
| 20260504050749 | 63 | 210 | 3.0 | 5.0 | 0.00 | 0.00 | 0.00 | 83 | 1016.9 |
| 20260504050247 | 63 | 235 | 2.0 | 4.0 | 0.00 | 0.00 | 0.00 | 83 | 1017.2 |
| 20260504045745 | 63 | 225 | 2.0 | 4.0 | 0.00 | 0.00 | 0.00 | 84 | 1017.0 |
| 20260504045239 | 62 | 109 | 3.0 | 3.0 | 0.00 | 0.00 | 0.00 | 84 | 1017.1 |
| 20260504044737 | 62 | 174 | 1.0 | 3.0 | 0.00 | 0.00 | 0.00 | 84 | 1017.0 |
| 20260504044234 | 62 | 246 | 0.0 | 3.0 | 0.00 | 0.00 | 0.00 | 83 | 1017.2 |
| 20260504043731 | 63 | 117 | 1.0 | 2.0 | 0.00 | 0.00 | 0.00 | 83 | 1017.2 |
| 20260504043228 | 63 | 173 | 0.0 | 3.0 | 0.00 | 0.00 | 0.00 | 83 | 1017.4 |
| 20260504042726 | 63 | 206 | 0.0 | 3.0 | 0.00 | 0.00 | 0.00 | 82 | 1017.3 |
| 20260504042222 | 63 | 120 | 1.0 | 4.0 | 0.00 | 0.00 | 0.00 | 82 | 1017.2 |
| 20260504041718 | 63 | 202 | 0.0 | 3.0 | 0.00 | 0.00 | 0.00 | 82 | 1017.5 |
| 20260504041214 | 63 | 151 | 0.0 | 2.0 | 0.00 | 0.00 | 0.00 | 82 | 1017.3 |
| 20260504040711 | 63 | 142 | 0.0 | 3.0 | 0.00 | 0.00 | 0.00 | 81 | 1017.3 |
| 20260504040208 | 63 | 123 | 0.0 | 0.0 | 0.00 | 0.00 | 0.00 | 81 | 1017.4 |
| 20260504035704 | 63 | 151 | 3.0 | 3.0 | 0.00 | 0.00 | 0.00 | 80 | 1017.6 |
| 20260504035202 | 64 | 240 | 0.0 | 3.0 | 0.00 | 0.00 | 0.00 | 80 | 1017.4 |
| 20260504034659 | 64 | 221 | 0.0 | 3.0 | 0.00 | 0.00 | 0.00 | 79 | 1017.7 |
| 20260504034156 | 64 | 135 | 3.0 | 3.0 | 0.00 | 0.00 | 0.00 | 79 | 1017.5 |
| 20260504033654 | 64 | 180 | 0.0 | 4.0 | 0.00 | 0.00 | 0.00 | 79 | 1017.3 |
| 20260504033150 | 64 | 138 | 3.0 | 3.0 | 0.00 | 0.00 | 0.00 | 79 | 1017.4 |
| 20260504032647 | 64 | 90 | 1.0 | 4.0 | 0.00 | 0.00 | 0.00 | 79 | 1017.2 |
| 20260504032144 | 63 | 156 | 0.0 | 4.0 | 0.00 | 0.00 | 0.00 | 78 | 1017.2 |
| 20260504031641 | 63 | 203 | 1.0 | 4.0 | 0.00 | 0.00 | 0.00 | 80 | 1017.2 |
| 20260504031137 | 62 | 203 | 0.0 | 3.0 | 0.00 | 0.00 | 0.00 | 82 | 1017.1 |
| 20260504030634 | 60 | 165 | 1.0 | 3.0 | 0.00 | 0.00 | 0.00 | 89 | 1017.1 |
| 20260504030131 | 60 | 140 | 0.0 | 2.0 | 0.00 | 0.00 | 0.00 | 88 | 1017.0 |
| 20260504025628 | 59 | 81 | 0.0 | 0.0 | 0.00 | 0.00 | 0.00 | 85 | 1016.9 |
| 20260504025124 | 60 | 81 | 0.0 | 0.0 | 0.00 | 0.00 | 0.00 | 84 | 1016.9 |
| 20260504024622 | 60 | 81 | 0.0 | 0.0 | 0.00 | 0.00 | 0.00 | 83 | 1017.0 |
| 20260504024118 | 61 | 81 | 0.0 | 0.0 | 0.00 | 0.00 | 0.00 | 82 | 1016.8 |
| 20260504023615 | 61 | 81 | 0.0 | 0.0 | 0.00 | 0.00 | 0.00 | 80 | 1016.8 |
| 20260504023111 | 62 | 81 | 0.0 | 0.0 | 0.00 | 0.00 | 0.00 | 80 | 1016.6 |
| 20260504022607 | 62 | 81 | 0.0 | 0.0 | 0.00 | 0.00 | 0.00 | 77 | 1016.7 |
| 20260504022103 | 63 | 81 | 0.0 | 0.0 | 0.00 | 0.00 | 0.00 | 76 | 1016.5 |
| 20260504021601 | 63 | 81 | 0.0 | 0.0 | 0.00 | 0.00 | 0.00 | 75 | 1016.7 |
| 20260504021058 | 64 | 81 | 0.0 | 0.0 | 0.00 | 0.00 | 0.00 | 75 | 1016.6 |
| 20260504020555 | 64 | 114 | 0.0 | 0.0 | 0.00 | 0.00 | 0.00 | 75 | 1016.4 |
| 20260504020051 | 64 | 114 | 0.0 | 0.0 | 0.00 | 0.00 | 0.00 | 74 | 1016.4 |
| 20260504015548 | 64 | 81 | 0.0 | 0.0 | 0.00 | 0.00 | 0.00 | 72 | 1016.6 |
| 20260504015043 | 64 | 114 | 0.0 | 0.0 | 0.00 | 0.00 | 0.00 | 72 | 1016.4 |
| 20260504014540 | 64 | 114 | 0.0 | 1.0 | 0.00 | 0.00 | 0.00 | 71 | 1016.4 |
| 20260504014037 | 65 | 131 | 0.0 | 0.0 | 0.00 | 0.00 | 0.00 | 71 | 1016.6 |
| 20260504013535 | 66 | 131 | 0.0 | 0.0 | 0.00 | 0.00 | 0.00 | 70 | 1016.5 |
| 20260504013032 | 66 | 131 | 0.0 | 0.0 | 0.00 | 0.00 | 0.00 | 67 | 1016.2 |
| 20260504012529 | 67 | 131 | 0.0 | 0.0 | 0.00 | 0.00 | 0.00 | 65 | 1016.6 |
| 20260504012028 | 68 | 131 | 0.0 | 2.0 | 0.00 | 0.00 | 0.00 | 64 | 1016.3 |
| 20260504011524 | 69 | 90 | 0.0 | 0.0 | 0.00 | 0.00 | 0.00 | 62 | 1016.2 |
| 20260504011020 | 69 | 105 | 0.0 | 0.0 | 0.00 | 0.00 | 0.00 | 61 | 1016.2 |
| 20260504010516 | 70 | 114 | 0.0 | 0.0 | 0.00 | 0.00 | 0.00 | 60 | 1016.3 |
| 20260504010012 | 71 | 209 | 0.0 | 0.0 | 0.00 | 0.00 | 0.00 | 58 | 1016.1 |
| 20260504005509 | 71 | 114 | 0.0 | 3.0 | 0.00 | 0.00 | 0.00 | 58 | 1016.2 |
| 20260504005007 | 71 | 139 | 0.0 | 2.0 | 0.00 | 0.00 | 0.00 | 57 | 1016.4 |
| 20260504004504 | 72 | 148 | 3.0 | 3.0 | 0.00 | 0.00 | 0.00 | 56 | 1016.4 |
| 20260504004001 | 72 | 279 | 0.0 | 2.0 | 0.00 | 0.00 | 0.00 | 55 | 1016.4 |
| 20260504003457 | 72 | 152 | 0.0 | 3.0 | 0.00 | 0.00 | 0.00 | 56 | 1016.3 |
| 20260504002954 | 73 | 139 | 2.0 | 5.0 | 0.00 | 0.00 | 0.00 | 53 | 1016.3 |
| 20260504002451 | 73 | 139 | 0.0 | 5.0 | 0.00 | 0.00 | 0.00 | 53 | 1016.6 |
| 20260504001948 | 73 | 146 | 2.0 | 4.0 | 0.00 | 0.00 | 0.00 | 54 | 1016.7 |
| 20260504001445 | 73 | 180 | 1.0 | 3.0 | 0.00 | 0.00 | 0.00 | 52 | 1016.6 |
| 20260504000942 | 74 | 212 | 2.0 | 6.0 | 0.00 | 0.00 | 0.00 | 53 | 1016.7 |
| 20260504000439 | 74 | 154 | 1.0 | 4.0 | 0.00 | 0.00 | 0.00 | 52 | 1016.7 |
| 20260503235936 | 75 | 133 | 3.0 | 3.0 | 0.00 | 0.00 | 0.00 | 50 | 1016.8 |
| 20260503235434 | 76 | 248 | 2.0 | 5.0 | 0.00 | 0.00 | 0.00 | 49 | 1016.9 |
| 20260503234931 | 76 | 146 | 3.0 | 3.0 | 0.00 | 0.00 | 0.00 | 48 | 1016.8 |
| 20260503234429 | 77 | 158 | 4.0 | 7.0 | 0.00 | 0.00 | 0.00 | 47 | 1016.7 |
| 20260503233927 | 78 | 201 | 2.0 | 8.0 | 0.00 | 0.00 | 0.00 | 46 | 1016.8 |
| 20260503233423 | 78 | 160 | 3.0 | 6.0 | 0.00 | 0.00 | 0.00 | 46 | 1016.9 |
| 20260503232920 | 78 | 161 | 4.0 | 7.0 | 0.00 | 0.00 | 0.00 | 47 | 1016.6 |
| 20260503232417 | 78 | 145 | 1.0 | 6.0 | 0.00 | 0.00 | 0.00 | 46 | 1016.7 |
| 20260503231915 | 78 | 151 | 3.0 | 7.0 | 0.00 | 0.00 | 0.00 | 45 | 1016.7 |
| 20260503231412 | 79 | 154 | 2.0 | 5.0 | 0.00 | 0.00 | 0.00 | 48 | 1016.7 |
| 20260503230908 | 79 | 145 | 3.0 | 9.0 | 0.00 | 0.00 | 0.00 | 45 | 1016.9 |
| 20260503230404 | 79 | 139 | 0.0 | 4.0 | 0.00 | 0.00 | 0.00 | 46 | 1016.8 |
| 20260503225903 | 79 | 144 | 3.0 | 5.0 | 0.00 | 0.00 | 0.00 | 45 | 1016.8 |
| 20260503225358 | 78 | 133 | 5.0 | 7.0 | 0.00 | 0.00 | 0.00 | 45 | 1016.9 |
| 20260503224854 | 78 | 154 | 3.0 | 6.0 | 0.00 | 0.00 | 0.00 | 46 | 1017.0 |
| 20260503224351 | 79 | 208 | 4.0 | 9.0 | 0.00 | 0.00 | 0.00 | 43 | 1017.1 |
| 20260503223849 | 78 | 213 | 2.0 | 6.0 | 0.00 | 0.00 | 0.00 | 46 | 1017.1 |
| 20260503223347 | 78 | 208 | 2.0 | 7.0 | 0.00 | 0.00 | 0.00 | 45 | 1017.2 |
| 20260503222842 | 78 | 68 | 0.0 | 5.0 | 0.00 | 0.00 | 0.00 | 44 | 1017.3 |
| 20260503222341 | 78 | 168 | 3.0 | 5.0 | 0.00 | 0.00 | 0.00 | 45 | 1017.2 |
| 20260503221839 | 79 | 142 | 4.0 | 9.0 | 0.00 | 0.00 | 0.00 | 43 | 1017.2 |
| 20260503221337 | 78 | 195 | 4.0 | 7.0 | 0.00 | 0.00 | 0.00 | 44 | 1017.4 |
| 20260503220833 | 79 | 152 | 7.0 | 11.0 | 0.00 | 0.00 | 0.00 | 43 | 1017.4 |
| 20260503220330 | 80 | 199 | 2.0 | 5.0 | 0.00 | 0.00 | 0.00 | 45 | 1017.4 |
| 20260503215827 | 80 | 154 | 0.0 | 5.0 | 0.00 | 0.00 | 0.00 | 43 | 1017.5 |
| 20260503215324 | 81 | 150 | 0.0 | 4.0 | 0.00 | 0.00 | 0.00 | 41 | 1017.5 |
| 20260503214822 | 81 | 202 | 3.0 | 7.0 | 0.00 | 0.00 | 0.00 | 41 | 1017.9 |
| 20260503214319 | 79 | 202 | 2.0 | 9.0 | 0.00 | 0.00 | 0.00 | 42 | 1017.7 |
| 20260503213816 | 79 | 101 | 5.0 | 8.0 | 0.00 | 0.00 | 0.00 | 42 | 1017.8 |
| 20260503213313 | 79 | 146 | 5.0 | 11.0 | 0.00 | 0.00 | 0.00 | 41 | 1018.2 |
| 20260503212810 | 79 | 159 | 2.0 | 8.0 | 0.00 | 0.00 | 0.00 | 42 | 1017.9 |
| 20260503212307 | 81 | 135 | 4.0 | 6.0 | 0.00 | 0.00 | 0.00 | 39 | 1018.1 |
| 20260503211800 | 80 | 208 | 6.0 | 7.0 | 0.00 | 0.00 | 0.00 | 43 | 1018.0 |
| 20260503211256 | 80 | 79 | 0.0 | 6.0 | 0.00 | 0.00 | 0.00 | 43 | 1018.1 |
| 20260503210755 | 80 | 163 | 4.0 | 7.0 | 0.00 | 0.00 | 0.00 | 42 | 1018.2 |
| 20260503210254 | 79 | 189 | 5.0 | 7.0 | 0.00 | 0.00 | 0.00 | 43 | 1018.3 |
| 20260503205748 | 78 | 185 | 0.0 | 9.0 | 0.00 | 0.00 | 0.00 | 43 | 1018.5 |
| 20260503205245 | 79 | 108 | 3.0 | 4.0 | 0.00 | 0.00 | 0.00 | 44 | 1018.5 |
| 20260503204742 | 80 | 151 | 2.0 | 9.0 | 0.00 | 0.00 | 0.00 | 41 | 1018.9 |
| 20260503204240 | 80 | 103 | 2.0 | 4.0 | 0.00 | 0.00 | 0.00 | 44 | 1018.6 |
| 20260503203737 | 79 | 104 | 5.0 | 10.0 | 0.00 | 0.00 | 0.00 | 44 | 1018.9 |
| 20260503203234 | 81 | 117 | 3.0 | 5.0 | 0.00 | 0.00 | 0.00 | 43 | 1018.8 |
| 20260503202731 | 80 | 105 | 4.0 | 6.0 | 0.00 | 0.00 | 0.00 | 43 | 1019.0 |
| 20260503202229 | 80 | 190 | 3.0 | 9.0 | 0.00 | 0.00 | 0.00 | 45 | 1018.9 |
| 20260503201727 | 80 | 250 | 2.0 | 12.0 | 0.00 | 0.00 | 0.00 | 46 | 1019.0 |
| 20260503201224 | 79 | 159 | 4.0 | 8.0 | 0.00 | 0.00 | 0.00 | 45 | 1019.0 |
| 20260503200720 | 81 | 157 | 0.0 | 6.0 | 0.00 | 0.00 | 0.00 | 45 | 1019.1 |
| 20260503200217 | 80 | 225 | 4.0 | 7.0 | 0.00 | 0.00 | 0.00 | 47 | 1019.0 |
| 20260503195713 | 79 | 226 | 5.0 | 8.0 | 0.00 | 0.00 | 0.00 | 46 | 1019.5 |
| 20260503195210 | 79 | 212 | 4.0 | 9.0 | 0.00 | 0.00 | 0.00 | 45 | 1019.5 |
| 20260503194708 | 80 | 126 | 3.0 | 4.0 | 0.00 | 0.00 | 0.00 | 45 | 1019.5 |
| 20260503194204 | 79 | 166 | 3.0 | 9.0 | 0.00 | 0.00 | 0.00 | 44 | 1019.5 |
| 20260503193700 | 79 | 127 | 8.0 | 9.0 | 0.00 | 0.00 | 0.00 | 44 | 1019.7 |
| 20260503193156 | 78 | 246 | 5.0 | 6.0 | 0.00 | 0.00 | 0.00 | 42 | 1020.0 |
| 20260503192651 | 80 | 214 | 8.0 | 8.0 | 0.00 | 0.00 | 0.00 | 46 | 1019.9 |